Regional Weather Roundup
Issued by NWS Northern Indiana

Home | Current Version | Previous Version | Graphics & Text | Print | Product List | Glossary On
Versions: 1 2 3 4 5 6 7 8 9 10 11 12 13 14 15 16 17 18 19 20 21 22 23 24 25 26 27 28 29 30 31 32 33 34 35 36 37 38 39 40 41 42 43 44 45 46 47 48 49 50
000
ASUS43 KIWX 251410
RWRIWX

KIWX WEATHER ROUNDUP
NATIONAL WEATHER SERVICE NORTHERN INDIANA
1000 AM EDT TUE APR 25 2017

NOTE: "FAIR" INDICATES FEW OR NO CLOUDS BELOW 12,000 FEET WITH NO
SIGNIFICANT WEATHER AND/OR OBSTRUCTIONS TO VISIBILITY.

* THESE STATIONS ARE NOT UNDER NWS QUALITY CONTROL. THEY ALSO MAY NOT
  REPORT WEATHER SUCH AS PRECIPITATION OR FOG.

INZ001>027-251500-
NORTHERN INDIANA

CITY           SKY/WX    TMP DP  RH WIND       PRES   REMARKS
GARY*          PTSUNNY   63  50  63 S10G22    29.74S
VALPARAISO     MOSUNNY   63  54  72 S14G21    29.75F
MICHIGAN CITY* MOSUNNY   61  52  72 S7G16     29.76F
LAPORTE*       MOSUNNY   61  53  73 S10       29.77S
KNOX*          MOSUNNY   61  34  36 S15       29.77S
SOUTH BEND     SUNNY     61  52  72 SE12      29.79F
ELKHART*       SUNNY     61  50  67 SE5       29.78F
GOSHEN         MOSUNNY   61  50  67 SE12      29.79F
MONTICELLO*    MOSUNNY   62  53  74 S7        29.76F
LOGANSPORT*    MOSUNNY   59  54  82 SE12      29.79F
ROCHESTER*     MOSUNNY   63  54  72 SE7       29.79F
WARSAW*        MOSUNNY   59  50  72 SE7       29.80S
ANGOLA*        CLOUDY    57  50  77 SE9       29.82S
FORT WAYNE     PTSUNNY   60  50  69 SE12      29.82R
HUNTINGTON*    SUNNY     60  51  73 S6        29.81S
PERU/GRISSOM   MOSUNNY   62  57  83 S12       29.78S
MARION*        SUNNY     61  52  72 SE10      29.81S

$$
INZ028>050-251500-
CENTRAL INDIANA

CITY           SKY/WX    TMP DP  RH WIND       PRES   REMARKS
LAFAYETTE      CLOUDY    61  54  77 S10       29.76S
KOKOMO*        MOSUNNY   62  54  74 S10       29.80S
MUNCIE*        SUNNY     63  51  65 S8        29.81R
INDIANAPOLIS   PTSUNNY   61  54  77 S9        29.78F

$$
MIZ043>046-050>051-056>058-064>065-071>073-077>080-251500-
SOUTHWEST LOWER MICHIGAN

CITY           SKY/WX    TMP DP  RH WIND       PRES   REMARKS
BATTLE CREEK   MOSUNNY   59  50  72 S12       29.81F
BENTON HARBOR    N/A     63  51  65 S15       29.76S
COLDWATER*     SUNNY     59  50  72 SE12G17   29.82S
HILLSDALE*     CLOUDY    55  46  71 SE10      29.83S
HOLLAND        SUNNY     62  50  64 SE13      29.77F
GRAND RAPIDS   PTSUNNY   60  51  72 SE10      29.79F
KALAMAZOO      CLOUDY    61  49  64 SE8       29.80F
STURGIS*       CLOUDY    60  51  71 SE12      29.79F
THREE RIVERS*  FAIR      60  50  70 S9        29.80F

$$
OHZ001>008-015>018-024>025-251500-
NORTHWEST OHIO

CITY           SKY/WX    TMP DP  RH WIND       PRES   REMARKS
WAUSEON*       CLOUDY    59  50  72 SE12      29.84F
DEFIANCE       CLOUDY    57  47  69 SE10      29.84S
FINDLAY        PTSUNNY   60  47  61 SE10      29.83F
TOLEDO EXPRESS CLOUDY    56  49  77 SE7       29.85S
TOLEDO METCALF CLOUDY    58  51  78 E9        29.86F
LIMA           PTSUNNY   59  50  72 SE13      29.83F

$$
AND FOR LAKE MICHIGAN COASTAL AND OPEN LAKE BUOY OBSERVATIONS

STATION/POSITION TEMP    WIND        PRES    VSBY  WAVE
                 AIR SEA DIR/SP/G                  HT/PER
                 (F)     (DEG/KT/KT) (MB)    (MI)  (FT/S)
CALUMET HARBOR    60     180/  9/ 16 1006.2F
MICHIGAN CITY     60     150/ 14/ 18   N/A
BURNS HARBOR      63     170/ 12/ 21 1007.5
SOUTH LAKE BUOY   46 41  100/ 12/ 14 1007.4          1/ 3
4 MI NW BRIDGMAN  57 49  170/ 10/ 14 1007.7          1/ 2

$$
&&




USA.gov is the U.S. government's official web portal to all federal, state and local government web resources and services.